TimeEDT,TemperatureF,Dew PointF,Humidity,Sea Level PressureIn,VisibilityMPH,Wind Direction,Wind SpeedMPH,Gust SpeedMPH,PrecipitationIn,Events,Conditions,WindDirDegrees,DateUTC
12:53 AM,66.0,63.0,90,29.93,10.0,SSE,6.9,-,N/A,,Clear,160,2013-08-07 04:53:00
1:53 AM,64.9,62.1,90,29.93,10.0,South,5.8,-,N/A,,Clear,170,2013-08-07 05:53:00
2:53 AM,66.9,64.0,90,29.92,10.0,South,5.8,-,N/A,,Mostly Cloudy,170,2013-08-07 06:53:00
3:53 AM,66.9,64.9,93,29.88,10.0,South,6.9,-,N/A,,Mostly Cloudy,170,2013-08-07 07:53:00
4:03 AM,68.0,64.4,88,29.91,10.0,South,5.8,-,N/A,,Overcast,170,2013-08-07 08:03:00
4:53 AM,68.0,64.9,90,29.88,9.0,SSE,4.6,-,N/A,,Clear,160,2013-08-07 08:53:00
5:10 AM,69.8,66.2,88,29.91,10.0,SSE,4.6,-,N/A,,Mostly Cloudy,160,2013-08-07 09:10:00
5:36 AM,69.8,66.2,88,29.90,10.0,SSE,4.6,-,N/A,,Overcast,160,2013-08-07 09:36:00
5:53 AM,69.1,66.0,90,29.87,10.0,SSE,5.8,-,N/A,,Mostly Cloudy,160,2013-08-07 09:53:00
6:05 AM,69.8,66.2,88,29.88,9.0,SSE,6.9,-,N/A,,Scattered Clouds,150,2013-08-07 10:05:00
6:53 AM,66.9,64.9,93,29.87,5.0,SSE,6.9,-,N/A,,Clear,160,2013-08-07 10:53:00
7:53 AM,70.0,68.0,93,29.86,4.0,South,9.2,-,N/A,,Scattered Clouds,190,2013-08-07 11:53:00
8:50 AM,71.6,69.8,94,29.91,4.0,SSW,6.9,-,N/A,,Overcast,200,2013-08-07 12:50:00
8:53 AM,73.0,70.0,90,29.89,4.0,SSW,6.9,-,N/A,,Overcast,200,2013-08-07 12:53:00
9:21 AM,73.4,71.6,94,29.92,5.0,SSW,5.8,-,N/A,,Overcast,200,2013-08-07 13:21:00
9:45 AM,75.2,71.6,89,29.92,5.0,SSW,6.9,-,N/A,Thunderstorm,Overcast,210,2013-08-07 13:45:00
9:53 AM,73.9,71.1,91,29.89,5.0,SSW,9.2,-,N/A,Thunderstorm,Overcast,210,2013-08-07 13:53:00
10:21 AM,75.2,71.6,89,29.92,6.0,WSW,4.6,-,N/A,Thunderstorm,Overcast,240,2013-08-07 14:21:00
10:33 AM,75.2,71.6,89,29.92,6.0,WSW,3.5,-,N/A,Thunderstorm,Overcast,240,2013-08-07 14:33:00
10:48 AM,75.2,71.6,89,29.92,7.0,SW,3.5,-,N/A,,Overcast,230,2013-08-07 14:48:00
10:53 AM,77.0,72.0,84,29.89,7.0,Calm,Calm,-,N/A,,Overcast,0,2013-08-07 14:53:00
11:53 AM,78.1,72.0,81,29.89,9.0,SSW,10.4,-,N/A,,Mostly Cloudy,210,2013-08-07 15:53:00
12:53 PM,81.0,71.1,72,29.89,10.0,SW,5.8,-,N/A,,Mostly Cloudy,230,2013-08-07 16:53:00
1:41 PM,73.4,66.2,78,29.92,10.0,NNE,11.5,-,N/A,,Overcast,30,2013-08-07 17:41:00
1:53 PM,73.9,66.0,76,29.89,10.0,NNE,12.7,19.6,N/A,,Overcast,20,2013-08-07 17:53:00
2:02 PM,73.4,66.2,78,29.92,10.0,NE,10.4,-,N/A,Thunderstorm,Mostly Cloudy,50,2013-08-07 18:02:00
2:48 PM,75.2,68.0,78,29.91,10.0,East,5.8,-,0.00,,Mostly Cloudy,80,2013-08-07 18:48:00
2:53 PM,75.9,69.1,79,29.88,10.0,East,8.1,-,0.00,,Mostly Cloudy,100,2013-08-07 18:53:00
3:53 PM,78.1,70.0,76,29.86,10.0,East,6.9,-,N/A,,Scattered Clouds,80,2013-08-07 19:53:00
4:53 PM,81.0,72.0,74,29.85,10.0,Calm,Calm,-,N/A,,Scattered Clouds,0,2013-08-07 20:53:00
5:53 PM,81.0,71.1,72,29.85,9.0,SW,5.8,-,N/A,,Partly Cloudy,230,2013-08-07 21:53:00
6:53 PM,81.0,71.1,72,29.85,9.0,WSW,5.8,-,N/A,,Mostly Cloudy,250,2013-08-07 22:53:00
7:10 PM,80.6,71.6,74,29.88,9.0,WSW,5.8,-,N/A,,Scattered Clouds,250,2013-08-07 23:10:00
7:53 PM,77.0,72.0,84,29.85,8.0,SSW,5.8,-,N/A,,Scattered Clouds,200,2013-08-07 23:53:00
8:53 PM,75.9,71.1,85,29.86,7.0,Calm,Calm,-,N/A,,Partly Cloudy,0,2013-08-08 00:53:00
9:53 PM,73.9,71.1,91,29.88,8.0,Calm,Calm,-,N/A,,Scattered Clouds,0,2013-08-08 01:53:00
10:53 PM,73.0,70.0,90,29.88,7.0,South,3.5,-,N/A,,Partly Cloudy,190,2013-08-08 02:53:00
11:53 PM,72.0,70.0,93,29.89,6.0,South,4.6,-,N/A,,Scattered Clouds,190,2013-08-08 03:53:00